OneWeb SL0300

operational
NORAD ID: 49089 Int'l Des: 2021-075 Owner: ONEWEBN Country: UK Constellation: oneweb
LEOCIRCULARPOLARONEWEB_TYPE

OneWeb SL0300について

説明を読み込み中...

リアルタイム位置

3D地球を読み込み中...

次回通過

高度履歴

Altitude vs Time

uPlot chart will show altitude changes over time

軌道要素

1 49089U 21075Q 25258.11650949 -.00000066 00000-0 -21838-3 0 9991
2 49089 87.8903 45.3001 0001659 83.6050 276.5268 13.12442512199126
Epoch: Sep 15, 2025 • Age: 12 hours

現在のステータス

高度 1243.2 km
速度 7.23 km/s
衛星直下点 -80.97°S, 169.16°E
打ち上げ日 Aug 21, 2021
運用期間 4 years
タイプ internet

技術仕様

分類 Payload
質量 148.00 kg
乾燥質量 140.00 kg
総質量 148.00 kg
長さ 1.30 m
直径 1.00 m
スパン 5.00 m
形状 Trapezoid+2 pan
製造者 ONEWUS
バスタイプ ARROW
フェーズステータス In Orbit
所有者/国 ONEWEBN/UK

大規模コンステレーション

Loading constellations...